• In Deutschland
  • Länderverzeichnis
  • Für 7 Tage
  • Wassertemperatur
  • Satellitenkarten
  • Wetterkarte
  • Widgets
  • user-avatar
    Anmelden

    Stündliche Wetter Bad Rippoldsau-Schapbach

    Heute, 17 Dezember, Sonntag

    Zeit Temperatur Niederschläge Wind Luftdruck Luftfeuchtigkeit
    00:00 -3°C° 0,3 mm 2 m/S 701 mmHg 93%
    01:00 -1°C° 0 mm 1 m/S 701 mmHg 94%
    02:00 -3°C° 0,2 mm 2 m/S 702 mmHg 94%
    03:00 -3°C° 0,2 mm 2 m/S 702 mmHg 94%
    04:00 -3°C° 0,2 mm 2 m/S 702 mmHg 93%
    05:00 -3°C° 0,1 mm 2 m/S 703 mmHg 93%
    06:00 -4°C° 0,1 mm 2 m/S 703 mmHg 93%
    07:00 -5°C° 0 mm 3 m/S 703 mmHg 93%
    08:00 -5°C° 0 mm 3 m/S 703 mmHg 91%
    09:00 -4°C° 0 mm 3 m/S 704 mmHg 89%
    10:00 -4°C° 0 mm 3 m/S 704 mmHg 87%
    11:00 -4°C° 0 mm 3 m/S 705 mmHg 84%
    12:00 -2°C° 0 mm 3 m/S 705 mmHg 81%
    13:00 -2°C° 0 mm 3 m/S 705 mmHg 79%
    14:00 -2°C° 0 mm 2 m/S 705 mmHg 81%
    15:00 -3°C° 0 mm 2 m/S 705 mmHg 82%
    16:00 -3°C° 0 mm 2 m/S 706 mmHg 84%
    17:00 -4°C° 0 mm 2 m/S 706 mmHg 85%
    18:00 -4°C° 0 mm 2 m/S 706 mmHg 87%
    19:00 -5°C° 0 mm 2 m/S 706 mmHg 88%
    20:00 -5°C° 0 mm 2 m/S 707 mmHg 88%
    21:00 -5°C° 0 mm 2 m/S 707 mmHg 88%
    22:00 -6°C° 0 mm 2 m/S 707 mmHg 88%
    23:00 -5°C° 0 mm 2 m/S 707 mmHg 87%

    Morgen, 18 Dezember, Montag

    Zeit Temperatur Niederschläge Wind Luftdruck Luftfeuchtigkeit
    00:00 -5°C° 0 mm 2 m/S 706 mmHg 86%
    01:00 -5°C° 0 mm 2 m/S 706 mmHg 85%
    02:00 -5°C° 0 mm 3 m/S 706 mmHg 85%
    03:00 -5°C° 0 mm 3 m/S 705 mmHg 84%
    04:00 -5°C° 0 mm 3 m/S 704 mmHg 83%
    05:00 -5°C° 0,3 mm 3 m/S 704 mmHg 84%
    06:00 -4°C° 0,3 mm 3 m/S 703 mmHg 86%
    07:00 -4°C° 0,3 mm 3 m/S 703 mmHg 87%
    08:00 -4°C° 0,7 mm 3 m/S 703 mmHg 89%
    09:00 -4°C° 0,7 mm 3 m/S 702 mmHg 90%
    10:00 -3°C° 0,7 mm 2 m/S 702 mmHg 91%
    11:00 -2°C° 0,3 mm 2 m/S 702 mmHg 91%
    12:00 0°C° 0,3 mm 1 m/S 702 mmHg 91%
    13:00 +1°C° 0,3 mm 1 m/S 702 mmHg 91%
    14:00 +1°C° 0 mm 1 m/S 703 mmHg 92%
    15:00 0°C° 0 mm 0 m/S 703 mmHg 93%
    16:00 0°C° 0 mm 0 m/S 703 mmHg 94%
    17:00 -1°C° 0 mm 0 m/S 704 mmHg 95%
    18:00 -1°C° 0 mm 0 m/S 704 mmHg 95%
    19:00 -1°C° 0 mm 0 m/S 705 mmHg 95%
    20:00 -2°C° 0 mm 0 m/S 705 mmHg 95%
    21:00 -2°C° 0 mm 0 m/S 706 mmHg 96%
    22:00 -2°C° 0 mm 0 m/S 706 mmHg 96%
    23:00 -2°C° 0 mm 0 m/S 707 mmHg 96%

    übermorgen, 19 Dezember, Dienstag

    Zeit Temperatur Niederschläge Wind Luftdruck Luftfeuchtigkeit
    00:00 -2°C° 0 mm 0 m/S 707 mmHg 96%
    01:00 -2°C° 0 mm 0 m/S 707 mmHg 96%
    02:00 -2°C° 0 mm 0 m/S 708 mmHg 96%
    03:00 -2°C° 0 mm 0 m/S 708 mmHg 95%
    04:00 -1°C° 0 mm 0 m/S 708 mmHg 95%
    05:00 -1°C° 0 mm 0 m/S 709 mmHg 95%
    06:00 -1°C° 0 mm 0 m/S 709 mmHg 95%
    07:00 -1°C° 0 mm 0 m/S 709 mmHg 96%
    08:00 0°C° 0 mm 1 m/S 710 mmHg 96%
    09:00 0°C° 0 mm 1 m/S 710 mmHg 96%
    10:00 +1°C° 0 mm 1 m/S 711 mmHg 95%
    11:00 +1°C° 0 mm 1 m/S 711 mmHg 95%
    12:00 +2°C° 0 mm 1 m/S 711 mmHg 94%
    13:00 +2°C° 0 mm 1 m/S 711 mmHg 93%
    14:00 +2°C° 0 mm 1 m/S 711 mmHg 94%
    15:00 +1°C° 0 mm 1 m/S 711 mmHg 95%
    16:00 +1°C° 0 mm 1 m/S 711 mmHg 95%
    17:00 +1°C° 0 mm 1 m/S 711 mmHg 95%
    18:00 0°C° 0 mm 1 m/S 712 mmHg 96%
    19:00 0°C° 0 mm 1 m/S 712 mmHg 96%
    20:00 0°C° 0 mm 1 m/S 712 mmHg 95%
    21:00 -1°C° 0 mm 1 m/S 712 mmHg 95%
    22:00 -1°C° 0 mm 1 m/S 712 mmHg 95%
    23:00 0°C° 0,2 mm 1 m/S 712 mmHg 95%

    20 Dezember, Mittwoch

    Zeit Temperatur Niederschläge Wind Luftdruck Luftfeuchtigkeit
    00:00 0°C° 0,2 mm 1 m/S 712 mmHg 95%
    01:00 0°C° 0,2 mm 1 m/S 712 mmHg 95%
    02:00 0°C° 0,6 mm 1 m/S 712 mmHg 95%
    03:00 0°C° 0,6 mm 1 m/S 712 mmHg 95%
    04:00 0°C° 0,6 mm 1 m/S 711 mmHg 95%
    05:00 0°C° 0,5 mm 1 m/S 711 mmHg 95%
    06:00 0°C° 0,5 mm 1 m/S 711 mmHg 95%
    07:00 -2°C° 0,5 mm 2 m/S 711 mmHg 95%
    08:00 -2°C° 0,5 mm 2 m/S 711 mmHg 95%
    09:00 -2°C° 0,5 mm 2 m/S 711 mmHg 95%
    10:00 -2°C° 0,5 mm 2 m/S 711 mmHg 94%
    11:00 -1°C° 0,6 mm 2 m/S 711 mmHg 95%
    12:00 -1°C° 0,6 mm 2 m/S 711 mmHg 95%
    13:00 -1°C° 0,6 mm 2 m/S 711 mmHg 95%
    14:00 -1°C° 0,5 mm 2 m/S 711 mmHg 96%
    15:00 -1°C° 0,5 mm 2 m/S 711 mmHg 96%
    16:00 +1°C° 0,5 mm 1 m/S 711 mmHg 96%
    17:00 +1°C° 0,3 mm 1 m/S 711 mmHg 96%
    18:00 -1°C° 0,3 mm 2 m/S 711 mmHg 96%
    19:00 -1°C° 0,3 mm 2 m/S 711 mmHg 97%
    20:00 -1°C° 0,2 mm 2 m/S 711 mmHg 97%
    21:00 -1°C° 0,2 mm 2 m/S 712 mmHg 97%
    22:00 -1°C° 0,2 mm 2 m/S 712 mmHg 97%
    23:00 -1°C° 0,1 mm 2 m/S 712 mmHg 97%

    21 Dezember, Donnerstag

    Zeit Temperatur Niederschläge Wind Luftdruck Luftfeuchtigkeit
    00:00 +1°C° 0,1 mm 2 m/S 712 mmHg 97%
    01:00 +1°C° 0,1 mm 2 m/S 712 mmHg 97%
    02:00 +1°C° 0,1 mm 2 m/S 712 mmHg 97%
    03:00 +1°C° 0,1 mm 2 m/S 712 mmHg 97%
    04:00 +1°C° 0,1 mm 2 m/S 712 mmHg 97%
    05:00 +1°C° 0,1 mm 2 m/S 712 mmHg 97%
    06:00 +1°C° 0,1 mm 2 m/S 712 mmHg 97%
    07:00 +1°C° 0,1 mm 2 m/S 712 mmHg 97%
    08:00 +2°C° 0,4 mm 2 m/S 712 mmHg 97%
    09:00 +1°C° 0,4 mm 3 m/S 712 mmHg 97%
    10:00 +1°C° 0,4 mm 3 m/S 713 mmHg 97%
    11:00 +1°C° 0,6 mm 3 m/S 713 mmHg 97%
    12:00 +1°C° 0,6 mm 3 m/S 712 mmHg 97%
    13:00 +2°C° 0,6 mm 3 m/S 712 mmHg 97%
    14:00 +2°C° 0,5 mm 3 m/S 712 mmHg 97%
    15:00 +3°C° 0,5 mm 2 m/S 712 mmHg 97%
    16:00 +3°C° 0,5 mm 2 m/S 712 mmHg 97%
    17:00 +3°C° 1,1 mm 2 m/S 712 mmHg 97%
    18:00 +3°C° 1,1 mm 2 m/S 712 mmHg 97%
    19:00 +3°C° 1,1 mm 2 m/S 712 mmHg 97%
    20:00 +3°C° 1 mm 2 m/S 712 mmHg 97%
    21:00 +3°C° 1 mm 2 m/S 712 mmHg 97%
    22:00 +3°C° 1 mm 2 m/S 711 mmHg 97%
    23:00 +3°C° 0,9 mm 2 m/S 711 mmHg 97%

    22 Dezember, Freitag

    Zeit Temperatur Niederschläge Wind Luftdruck Luftfeuchtigkeit
    00:00 +3°C° 0,9 mm 2 m/S 711 mmHg 97%
    01:00 +3°C° 0,9 mm 2 m/S 711 mmHg 97%
    02:00 +3°C° 0,3 mm 2 m/S 711 mmHg 97%
    03:00 +3°C° 0,3 mm 2 m/S 711 mmHg 97%
    04:00 +4°C° 0,3 mm 1 m/S 711 mmHg 98%
    05:00 +4°C° 0 mm 1 m/S 712 mmHg 97%
    06:00 +3°C° 0 mm 1 m/S 712 mmHg 97%
    07:00 +3°C° 0 mm 1 m/S 712 mmHg 97%
    08:00 +3°C° 0 mm 1 m/S 712 mmHg 96%
    09:00 +3°C° 0 mm 1 m/S 712 mmHg 96%
    10:00 +3°C° 0 mm 1 m/S 713 mmHg 95%
    11:00 +2°C° 0 mm 2 m/S 713 mmHg 93%
    12:00 +3°C° 0 mm 2 m/S 712 mmHg 90%
    13:00 +3°C° 0 mm 2 m/S 712 mmHg 88%
    14:00 +3°C° 0 mm 2 m/S 712 mmHg 88%
    15:00 +2°C° 0 mm 2 m/S 712 mmHg 89%
    16:00 +2°C° 0 mm 2 m/S 711 mmHg 89%
    17:00 +2°C° 0 mm 2 m/S 711 mmHg 89%
    18:00 0°C° 0 mm 3 m/S 711 mmHg 89%
    19:00 0°C° 0 mm 3 m/S 711 mmHg 89%
    20:00 0°C° 0,1 mm 3 m/S 711 mmHg 89%
    21:00 0°C° 0,1 mm 3 m/S 711 mmHg 89%
    22:00 0°C° 0,1 mm 3 m/S 711 mmHg 89%
    23:00 -1°C° 0 mm 3 m/S 711 mmHg 89%
    Mehr zeigen

    XHprof extension not loaded